sat.trackr.live / text

‹ back to catalog

KSM1-A

NORAD 46912 · 2020-081H

PAYLOAD ACTIVE UNKNOWN

§ Identity

Operator
Country
LUXE
Launch date
2020-11-07
Launch site
SRILR
Launch vehicle
Mass (kg)
RCS (m²)

External: N2YO · Heavens-Above · Gunter

§ Orbital elements

Epoch: 2026-09-20T04:38:45.367296Z

Period
94.29 min
Inclination
36.8957°
Eccentricity
0.0002034
Mean motion
15.27264644 rev/d
Perigee alt
482.6 km
Apogee alt
485.4 km
Semi-major
6,862.1 km
B*
2.2033e-4
RAAN
194.9262°
Arg perigee
338.5868°
Mean anomaly
21.4796°
Rev number
32,370

§ Raw data

KSM1-A1 46912U 20081H   26263.19358064  .00005930  00000+0  22033-3 0  99972 46912  36.8957 194.9262 0002034 338.5868  21.4796 15.27264644323700

JSON: /api/v1/satellites/46912 · /tle

For live sub-satellite position, see the globe view (requires WebGL).

§ Visibility from observer

Set your observer location to see the next 7 days of passes ≥ 10°. The values pass through the URL so the page stays shareable.

No JS? Fill the form by hand. The geolocation button needs JavaScript.

§ Radio — SatNOGS DB

ModeDescriptionDownlinkUplink
FSK AX.100 Mode 5 Mode U 401.030 MHz

1 transmitter · refreshed weekly from db.satnogs.org